JA1KWV-11 Weather Reports


Display with metric or nautical units.
time (UTC)temp
F
wind
direction
speed
MPH
gust
MPH
rain 1hr
in
rain 24hr
in
rain mn
in
humidity
%
barometer
mb
20260507040635 79 267 0.0 0.0 0.00 0.00 0.00 73 1011.1
20260507035835 79 267 0.0 0.0 0.00 0.00 0.00 73 1011.2
20260507035035 79 267 0.0 0.0 0.00 0.00 0.00 73 1011.1
20260507034235 79 267 0.0 0.0 0.00 0.00 0.00 73 1011.4
20260507033434 79 267 0.0 0.0 0.00 0.00 0.00 73 1011.6
20260507032634 79 267 0.0 0.0 0.00 0.00 0.00 72 1011.7
20260507031834 79 267 0.0 0.0 0.00 0.00 0.00 72 1011.8
20260507031034 79 267 0.0 0.0 0.00 0.00 0.00 73 1011.8
20260507030234 79 267 0.0 0.0 0.00 0.00 0.00 72 1011.9
20260507025433 79 267 0.0 0.0 0.00 0.00 0.00 72 1012.0
20260507024633 79 267 0.0 0.0 0.00 0.00 0.00 73 1012.0
20260507023833 79 267 0.0 0.0 0.00 0.00 0.00 70 1012.2
20260507023033 79 267 0.0 0.0 0.00 0.00 0.00 72 1012.0
20260507022232 79 267 0.0 0.0 0.00 0.00 0.00 72 1012.2
20260507021432 79 267 0.0 0.0 0.00 0.00 0.00 71 1012.2
20260507020632 79 267 0.0 0.0 0.00 0.00 0.00 72 1012.3
20260507015832 79 267 0.0 0.0 0.00 0.00 0.00 72 1012.6
20260507015032 79 267 0.0 0.0 0.00 0.00 0.00 71 1012.6
20260507014231 79 267 0.0 0.0 0.00 0.00 0.00 72 1012.7
20260507013431 79 267 0.0 0.0 0.00 0.00 0.00 72 1013.0
20260507012631 79 267 0.0 0.0 0.00 0.00 0.00 71 1013.1
20260507011831 79 267 0.0 0.0 0.00 0.00 0.00 72 1013.1
20260507011030 79 267 0.0 0.0 0.00 0.00 0.00 72 1013.1
20260507010230 79 267 0.0 0.0 0.00 0.00 0.00 73 1013.2
20260507005430 79 267 0.0 0.0 0.00 0.00 0.00 73 1013.2
20260507004630 79 267 0.0 0.0 0.00 0.00 0.00 71 1013.1
20260507003830 79 267 0.0 0.0 0.00 0.00 0.00 73 1013.5
20260507003029 79 267 0.0 0.0 0.00 0.00 0.00 73 1013.6
20260507002229 79 267 0.0 0.0 0.00 0.00 0.00 73 1013.7
20260507001429 79 267 0.0 0.0 0.00 0.00 0.00 73 1013.8
20260507000629 79 267 0.0 0.0 0.00 0.00 0.00 73 1013.7
20260506235829 79 267 0.0 0.0 0.00 0.00 0.00 74 1013.9
20260506235028 78 267 0.0 0.0 0.00 0.00 0.00 73 1014.0
20260506234228 78 267 0.0 0.0 0.00 0.00 0.00 74 1014.0
20260506233428 78 267 0.0 0.0 0.00 0.00 0.00 74 1014.2
20260506232628 78 267 0.0 0.0 0.00 0.00 0.00 73 1014.0
20260506231827 78 267 0.0 0.0 0.00 0.00 0.00 74 1014.3
20260506231027 78 267 0.0 0.0 0.00 0.00 0.00 74 1014.2
20260506230227 78 267 0.0 0.0 0.00 0.00 0.00 74 1014.4
20260506225427 77 267 0.0 0.0 0.00 0.00 0.00 74 1014.3
20260506224626 77 267 0.0 0.0 0.00 0.00 0.00 74 1014.5
20260506223826 77 267 0.0 0.0 0.00 0.00 0.00 74 1014.4
20260506223026 77 267 0.0 0.0 0.00 0.00 0.00 72 1014.6
20260506222226 77 267 0.0 0.0 0.00 0.00 0.00 74 1014.7
20260506221426 77 267 0.0 0.0 0.00 0.00 0.00 74 1014.6
20260506220625 77 267 0.0 0.0 0.00 0.00 0.00 74 1015.0
20260506215825 76 267 0.0 0.0 0.00 0.00 0.00 74 1015.0
20260506215025 76 267 0.0 0.0 0.00 0.00 0.00 74 1014.9
20260506214225 76 267 0.0 0.0 0.00 0.00 0.00 73 1015.1
20260506213425 76 267 0.0 0.0 0.00 0.00 0.00 75 1015.2
20260506212624 76 267 0.0 0.0 0.00 0.00 0.00 74 1015.2
20260506211824 76 267 0.0 0.0 0.00 0.00 0.00 73 1015.0
20260506211024 76 267 0.0 0.0 0.00 0.00 0.00 74 1014.9
20260506210224 76 267 0.0 0.0 0.00 0.00 0.00 74 1015.0
20260506205423 76 267 0.0 0.0 0.00 0.00 0.00 74 1015.2
20260506204623 75 267 0.0 0.0 0.00 0.00 0.00 74 1015.1
20260506203823 75 267 0.0 0.0 0.00 0.00 0.00 74 1015.0
20260506203023 75 267 0.0 0.0 0.00 0.00 0.00 75 1015.0
20260506202222 75 267 0.0 0.0 0.00 0.00 0.00 75 1015.0
20260506201422 75 267 0.0 0.0 0.00 0.00 0.00 74 1014.9
20260506200622 75 267 0.0 0.0 0.00 0.00 0.00 75 1014.9
20260506195822 75 267 0.0 0.0 0.00 0.00 0.00 74 1014.9
20260506195022 75 267 0.0 0.0 0.00 0.00 0.00 75 1014.9
20260506194221 75 267 0.0 0.0 0.00 0.00 0.00 74 1014.8
20260506193421 75 267 0.0 0.0 0.00 0.00 0.00 75 1015.0
20260506192621 75 267 0.0 0.0 0.00 0.00 0.00 75 1015.1
20260506191821 75 267 0.0 0.0 0.00 0.00 0.00 75 1015.2
20260506191021 75 267 0.0 0.0 0.00 0.00 0.00 73 1015.4
20260506190220 76 267 0.0 0.0 0.00 0.00 0.00 74 1015.6
20260506185420 76 267 0.0 0.0 0.00 0.00 0.00 74 1015.6
20260506184620 75 267 0.0 0.0 0.00 0.00 0.00 73 1015.4
20260506183820 75 267 0.0 0.0 0.00 0.00 0.00 75 1015.3
20260506183019 76 267 0.0 0.0 0.00 0.00 0.00 74 1015.6
20260506182219 75 267 0.0 0.0 0.00 0.00 0.00 74 1015.6
20260506181419 76 267 0.0 0.0 0.00 0.00 0.00 75 1015.8
20260506180619 76 267 0.0 0.0 0.00 0.00 0.00 73 1015.5
20260506175819 76 267 0.0 0.0 0.00 0.00 0.00 74 1015.3
20260506175018 76 267 0.0 0.0 0.00 0.00 0.00 73 1015.4
20260506174218 76 267 0.0 0.0 0.00 0.00 0.00 75 1015.5
20260506173418 76 267 0.0 0.0 0.00 0.00 0.00 74 1015.6
20260506172618 76 267 0.0 0.0 0.00 0.00 0.00 74 1015.8
20260506171818 76 267 0.0 0.0 0.00 0.00 0.00 74 1015.7
20260506171017 76 267 0.0 0.0 0.00 0.00 0.00 75 1015.8
20260506170217 76 267 0.0 0.0 0.00 0.00 0.00 75 1015.9
20260506165417 76 267 0.0 0.0 0.00 0.00 0.00 75 1015.8
20260506164617 76 267 0.0 0.0 0.00 0.00 0.00 76 1016.1
20260506163816 76 267 0.0 0.0 0.00 0.00 0.00 75 1016.1
20260506163016 76 267 0.0 0.0 0.00 0.00 0.00 75 1016.1
20260506162216 76 267 0.0 0.0 0.00 0.00 0.00 76 1016.3
20260506161416 76 267 0.0 0.0 0.00 0.00 0.00 75 1016.1
20260506160615 76 267 0.0 0.0 0.00 0.00 0.00 76 1016.3
20260506155815 76 267 0.0 0.0 0.00 0.00 0.00 74 1016.1
20260506155015 76 267 0.0 0.0 0.00 0.00 0.00 76 1016.3
20260506154215 76 267 0.0 0.0 0.00 0.00 0.00 76 1016.5
20260506153415 76 267 0.0 0.0 0.00 0.00 0.00 76 1016.3
20260506152614 76 267 0.0 0.0 0.00 0.00 0.00 76 1016.6
20260506151814 76 267 0.0 0.0 0.00 0.00 0.00 76 1016.6
20260506151014 76 267 0.0 0.0 0.00 0.00 0.00 76 1016.6
20260506150214 76 267 0.0 0.0 0.00 0.00 0.00 75 1017.0
20260506145414 76 267 0.0 0.0 0.00 0.00 0.00 75 1017.1
20260506144613 76 267 0.0 0.0 0.00 0.00 0.00 75 1017.1
20260506143813 76 267 0.0 0.0 0.00 0.00 0.00 75 1017.4
20260506143013 76 267 0.0 0.0 0.00 0.00 0.00 73 1017.4
20260506142213 76 267 0.0 0.0 0.00 0.00 0.00 71 1017.3
20260506141412 76 267 0.0 0.0 0.00 0.00 0.00 71 1017.2
20260506140612 76 267 0.0 0.0 0.00 0.00 0.00 71 1017.5
20260506135812 76 267 0.0 0.0 0.00 0.00 0.00 70 1017.0
20260506135012 76 267 0.0 0.0 0.00 0.00 0.00 71 1017.4
20260506134212 76 267 0.0 0.0 0.00 0.00 0.00 71 1017.6
20260506133411 76 267 0.0 0.0 0.00 0.00 0.00 71 1017.4
20260506132611 76 267 0.0 0.0 0.00 0.00 0.00 71 1017.7
20260506131811 76 267 0.0 0.0 0.00 0.00 0.00 69 1018.0
20260506131011 76 267 0.0 0.0 0.00 0.00 0.00 71 1017.9
20260506130211 76 267 0.0 0.0 0.00 0.00 0.00 70 1017.5
20260506125410 75 267 0.0 0.0 0.00 0.00 0.00 71 1017.3
20260506124610 76 267 0.0 0.0 0.00 0.00 0.00 69 1017.5
20260506123810 76 267 0.0 0.0 0.00 0.00 0.00 71 1017.6
20260506123010 76 267 0.0 0.0 0.00 0.00 0.00 71 1017.5
20260506122209 76 267 0.0 0.0 0.00 0.00 0.00 71 1017.9
20260506121409 76 267 0.0 0.0 0.00 0.00 0.00 70 1017.7
20260506120609 76 267 0.0 0.0 0.00 0.00 0.00 69 1017.5
20260506115809 76 267 0.0 0.0 0.00 0.00 0.00 69 1017.5
20260506115008 76 267 0.0 0.0 0.00 0.00 0.00 69 1017.7
20260506114208 76 267 0.0 0.0 0.00 0.00 0.00 68 1017.7
20260506113408 76 267 0.0 0.0 0.00 0.00 0.00 68 1017.5
20260506112608 76 267 0.0 0.0 0.00 0.00 0.00 69 1017.6
20260506111808 76 267 0.0 0.0 0.00 0.00 0.00 68 1017.8
20260506111007 76 267 0.0 0.0 0.00 0.00 0.00 69 1017.6
20260506110207 76 267 0.0 0.0 0.00 0.00 0.00 68 1017.8
20260506105407 76 267 0.0 0.0 0.00 0.00 0.00 68 1017.7
20260506104607 76 267 0.0 0.0 0.00 0.00 0.00 69 1017.8
20260506103806 76 267 0.0 0.0 0.00 0.00 0.00 68 1018.1
20260506103006 76 267 0.0 0.0 0.00 0.00 0.00 67 1018.0
20260506102206 76 267 0.0 0.0 0.00 0.00 0.00 67 1018.0
20260506101406 76 267 0.0 0.0 0.00 0.00 0.00 68 1017.8
20260506100606 76 267 0.0 0.0 0.00 0.00 0.00 67 1017.7
20260506095805 76 267 0.0 0.0 0.00 0.00 0.00 68 1017.8
20260506095005 76 267 0.0 0.0 0.00 0.00 0.00 67 1017.8
20260506094205 76 267 0.0 0.0 0.00 0.00 0.00 68 1017.5
20260506093405 76 267 0.0 0.0 0.00 0.00 0.00 68 1017.7
20260506092605 76 267 0.0 0.0 0.00 0.00 0.00 68 1018.1
20260506091804 76 267 0.0 0.0 0.00 0.00 0.00 67 1017.8
20260506091004 76 267 0.0 0.0 0.00 0.00 0.00 68 1017.7
20260506090204 76 267 0.0 0.0 0.00 0.00 0.00 68 1018.2
20260506085404 76 267 0.0 0.0 0.00 0.00 0.00 68 1017.8
20260506084603 76 267 0.0 0.0 0.00 0.00 0.00 68 1018.0
20260506083803 76 267 0.0 0.0 0.00 0.00 0.00 68 1017.9
20260506083003 76 267 0.0 0.0 0.00 0.00 0.00 67 1017.8
20260506082203 76 267 0.0 0.0 0.00 0.00 0.00 68 1017.8
20260506081403 76 267 0.0 0.0 0.00 0.00 0.00 67 1017.8
20260506080603 76 267 0.0 0.0 0.00 0.00 0.00 68 1018.0
20260506073401 76 267 0.0 0.0 0.00 0.00 0.00 67 1018.4
20260506072601 76 267 0.0 0.0 0.00 0.00 0.00 66 1018.4
20260506071801 76 267 0.0 0.0 0.00 0.00 0.00 68 1018.2
20260506071001 76 267 0.0 0.0 0.00 0.00 0.00 67 1018.1
20260506070200 76 267 0.0 0.0 0.00 0.00 0.00 68 1018.2
20260506062159 76 267 0.0 0.0 0.00 0.00 0.00 66 1018.3
20260506061359 76 267 0.0 0.0 0.00 0.00 0.00 67 1018.4
20260506060559 76 267 0.0 0.0 0.00 0.00 0.00 67 1018.7
20260506050957 75 267 0.0 0.0 0.00 0.00 0.00 67 1018.4
20260506050156 75 267 0.0 0.0 0.00 0.00 0.00 66 1018.6
20260506044556 75 267 0.0 0.0 0.00 0.00 0.00 66 1019.0
20260506043756 75 267 0.0 0.0 0.00 0.00 0.00 66 1019.2
20260506042956 75 267 0.0 0.0 0.00 0.00 0.00 66 1019.2
20260506042155 75 267 0.0 0.0 0.00 0.00 0.00 66 1019.2
20260506041355 75 267 0.0 0.0 0.00 0.00 0.00 66 1019.2